Weather observations for the past three days for
Fallon, Naval Air Station
Imperial (Metric)
Date Time (pdt) Wind (mph) Vis. (mi.) Weather Sky Cond. Temperature (ºF) Relative Humidity Wind Chill (°F) Heat Index (°F) Pressure Precipitation (in)
Air Dwpt 6 hour altimeter (in) sea level (mb) 1 hr 3 hr 6 hr
Max. Min.
12 10:56 Calm 10.00 A Few Clouds FEW120 95 33.1 96.1 66 11% 90 30.11 1016.1
12 09:56 Vrbl 5 10.00 A Few Clouds FEW120 90 39 17% 86 30.11 1016.3
12 08:56 NW 5 10.00 A Few Clouds FEW120 FEW180 87.1 35.1 16% 84 30.12 1016.4
12 07:56 SW 5 10.00 Partly Cloudy SCT120 SCT180 84 34 17% 81 30.12 1016.5
12 06:56 Calm 10.00 Partly Cloudy SCT120 SCT180 75 42.1 31% 77 30.1 1015.9
12 05:56 SW 6 10.00 Fair CLR 68 33.1 27% 30.1 1015.9
12 02:56 S 3 10.00 Fair CLR 72 33.1 24% 30.06 1014.8
12 01:56 Calm 10.00 Fair CLR 73.9 30 20% 30.07 1015.1
11 23:56 Calm 10.00 Fair CLR 81 30 16% 79 30.08 1015.2
11 22:56 W 9 10.00 A Few Clouds FEW090 FEW130 FEW200 89.1 28.9 107.1 89.1 11% 85 30.06 1014.6
11 20:56 W 8 10.00 Partly Cloudy FEW090 SCT130 SCT200 95 28.9 9% 90 30.03 1013.7
11 19:56 W 15 10.00 Mostly Cloudy SCT090 SCT130 BKN200 98.1 30 9% 93 30.01 1013.2
11 18:56 NW 8 9.00 Partly Cloudy SCT090 SCT200 100.9 30 8% 95 29.99 1012.7
11 17:56 W 12 9.00 Partly Cloudy SCT090 SCT200 106 25 6% 99 29.98 1012.3
11 16:56 W 10 10.00 Partly Cloudy SCT080 SCT200 107.1 23 107.1 95 5% 100 29.99 1012.6
11 15:56 W 9 G 18 10.00 Partly Cloudy SCT090 SCT180 107.1 25 5% 100 30.01 1013.3
11 14:56 N 6 10.00 Partly Cloudy SCT090 105.1 28 7% 99 30.04 1014.2
11 13:56 SW 9 10.00 A Few Clouds FEW090 102.9 27 7% 97 30.06 1014.8
11 12:56 Vrbl 7 10.00 A Few Clouds FEW090 102 30.9 8% 96 30.09 1015.5
11 11:56 Vrbl 3 10.00 Fair CLR 99 33.1 10% 94 30.1 1016.1
11 10:56 Vrbl 5 10.00 Fair CLR 95 34 95 62.1 12% 90 30.11 1016.3
11 09:56 Vrbl 3 10.00 Fair CLR 91.9 37 14% 88 30.12 1016.5
11 08:56 W 3 10.00 Fair CLR 87.1 39 18% 84 30.12 1016.6
11 07:56 S 7 10.00 Fair CLR 82 39 22% 80 30.12 1016.6
11 06:56 S 6 10.00 Fair CLR 73 37 27% 30.11 1016.4
11 05:56 S 5 10.00 Fair CLR 63 48 58% 30.1 1015.9
11 04:56 SW 6 10.00 Fair CLR 66.9 44.1 84.9 64.9 44% 30.09 1015.6
11 02:56 S 3 10.00 Fair CLR 70 37.9 31% 30.07 1015.2
10 23:56 E 7 10.00 Fair CLR 75 32 21% 76 30.06 1014.8
10 22:56 NW 7 10.00 Fair CLR 84.9 33.1 106 84.9 15% 82 30.04 1014.3
10 21:56 NW 10 10.00 Fair CLR 89.1 30.9 12% 85 30.03 1013.7
10 20:56 N 7 10.00 Fair CLR 87.1 37 17% 84 30 1013.0
10 19:56 NW 6 10.00 A Few Clouds FEW080 98.1 37 12% 93 29.98 1012.2
10 18:56 N 7 10.00 A Few Clouds FEW080 104 26.1 6% 98 29.97 1012.1
10 17:56 Vrbl 5 10.00 A Few Clouds FEW080 105.1 27 6% 99 29.97 1012.1
10 16:56 Vrbl 7 10.00 A Few Clouds FEW080 106 30 106 91.9 7% 99 29.98 1012.5
10 15:56 N 7 10.00 A Few Clouds FEW080 105.1 28.9 7% 99 30 1013.1
10 14:56 W 6 10.00 A Few Clouds FEW080 102 28 7% 96 30.03 1013.9
10 13:56 SW 7 10.00 A Few Clouds FEW080 100.9 27 7% 95 30.05 1014.6
10 12:56 NW 3 10.00 Fair CLR 99 25 7% 93 30.07 1015.0
10 11:56 N 5 10.00 Fair CLR 96.1 30.9 10% 91 30.08 1015.4
10 10:56 Vrbl 5 10.00 Fair CLR 91.9 33.1 93 59 12% 88 30.09 1015.7
10 09:56 Vrbl 6 10.00 Fair CLR 90 36 15% 86 30.1 1015.9
10 08:56 NW 5 10.00 Fair CLR 86 37.9 18% 83 30.1 1015.9
10 07:56 W 3 10.00 Fair CLR 80.1 39 23% 79 30.1 1015.9
10 06:56 S 5 10.00 Fair CLR 72 43 35% 30.08 1015.4
10 05:56 S 6 10.00 Fair CLR 64.9 43 45% 30.07 1015.0
10 04:56 SW 3 10.00 Fair CLR 66.9 42.1 80.1 64 41% 30.06 1014.7
10 03:56 S 6 10.00 Fair CLR 64 41 43% 30.05 1014.5
10 02:56 S 6 10.00 Fair CLR 66.9 37 33% 30.04 1014.3
10 01:56 W 3 10.00 Fair CLR 75 36 24% 76 30.04 1014.2
10 00:56 N 3 10.00 Fair CLR 73 35.1 25% 30.04 1014.2
09 23:56 NE 3 10.00 Fair CLR 75.9 36 23% 77 30.03 1013.9
09 22:56 Calm 10.00 Fair CLR 79 36 107.1 79 21% 78 30.01 1013.4
09 20:56 W 10 10.00 Partly Cloudy FEW080 SCT220 93 30.9 11% 88 29.95 1011.5
09 19:56 W 13 10.00 Partly Cloudy FEW080 SCT200 98.1 30 9% 93 29.92 1010.6
09 18:56 N 7 10.00 Partly Cloudy FEW080 SCT220 104 21.9 5% 97 29.91 1010.1
09 17:56 N 6 10.00 Partly Cloudy FEW080 SCT220 105.1 21.9 5% 98 29.91 1010.3
09 16:56 NW 8 G 17 10.00 Partly Cloudy FEW080 SCT220 107.1 23 107.1 96.1 5% 100 29.93 1010.7
09 15:56 Calm 10.00 Partly Cloudy FEW080 SCT220 105.1 23 5% 98 29.94 1011.2
09 14:56 Vrbl 7 10.00 Partly Cloudy FEW080 SCT220 104 25 6% 98 29.96 1011.9
09 13:56 Calm 10.00 Mostly Cloudy FEW080 BKN220 100.9 27 7% 95 29.99 1012.6
09 12:56 N 5 10.00 Mostly Cloudy BKN220 100.9 27 7% 95 30 1013.0
09 11:56 Vrbl 6 10.00 Mostly Cloudy BKN220 98.1 28 8% 93 30.02 1013.5
Date Time (pdt) Wind (mph) Vis. (mi.) Weather Sky Cond. Air Dwpt Max. Min. Relative Humidity Wind Chill (°F) Heat Index (°F) altimeter (in) sea level (mb) 1 hr 3 hr 6 hr
6 hour
Temperature (ºF) Pressure Precipitation (in)